Temp
18 18 16 19 19 21 21 21 21 19 16 17 16 17 18 19 17 15 16 16 16 16 15 16 15 14 13 11 10 9 8 7 6 5 5 5 5 5 4 3 2 1 1 1
17 16 20 20 21 20 20 20 19 16 16 15 16 16 18 19 20 20 17 17 16 17 14 14 14 14 12 11 10 9 8 7 6 6 6 6 6 5 4 3 1 1 1 -0
18 18 18 19 18 18 19 19 20 19 16 15 14 15 17 21 19 19 19 19 17 16 15 14 13 12 12 11 10 9 8 7 6 6 6 5 5 4 4 2 2 1 0 -1
18 16 17 17 18 18 18 18 18 17 17 15 16 13 21 22 21 19 19 18 17 16 16 15 13 12 11 10 10 9 8 7 6 5 5 5 5 5 4 3 1 0 -1 -1
16 14 15 17 17 18 16 16 17 16 16 17 15 13 16 22 22 22 18 18 17 16 15 14 13 12 11 10 10 9 8 7 6 5 4 4 4 4 3 2 1 -0 -1 -2
13 14 15 14 13 15 14 15 16 16 14 10 15 15 16 20 22 20 19 17 18 15 15 13 14 12 11 10 9 8 8 6 5 4 4 4 4 3 2 1 0 -0 -1 -2
14 14 12 14 12 14 15 15 11 11 9 11 14 14 15 18 19 22 17 15 16 15 13 12 10 11 10 9 9 8 7 5 4 4 3 3 3 3 2 1 -0 -1 -2 -2
13 13 12 13 15 13 12 14 12 13 12 13 12 11 16 19 20 19 18 16 13 13 12 11 10 11 10 9 8 7 6 4 4 3 2 2 2 2 1 0 -0 -1 -2 -2
16 14 11 11 12 13 13 11 14 9 4 9 13 16 19 19 18 17 16 15 14 12 11 10 10 11 10 9 7 6 5 4 3 2 2 1 1 1 1 -0 -1 -2 -2 -3
19 11 11 10 12 12 12 13 11 9 12 11 13 17 17 20 20 19 17 16 14 12 10 9 9 10 10 9 7 6 5 3 3 2 1 1 0 0 0 -0 -1 -2 -2 -3
17 13 9 10 10 10 9 9 10 12 12 12 12 14 17 19 19 19 18 16 14 11 10 9 8 10 10 8 6 5 4 3 2 1 1 0 -1 -1 -1 -1 -1 -2 -3 -3
13 11 8 10 10 10 11 12 10 10 11 10 9 12 19 17 18 19 17 16 16 12 10 8 8 8 8 7 6 5 3 2 2 1 0 -1 -1 -1 -1 -2 -2 -2 -3 -3
11 9 7 9 10 9 9 10 12 7 7 9 10 13 16 16 17 16 15 16 12 12 10 8 6 6 6 6 5 4 3 2 1 0 -0 -1 -2 -2 -2 -2 -2 -2 -3 -3
12 8 12 15 13 9 9 10 10 9 9 12 14 11 14 14 14 15 16 14 11 9 9 7 6 4 6 6 5 4 3 1 0 -0 -1 -2 -2 -2 -2 -2 -2 -2 -3 -4
9 10 8 9 10 11 12 10 10 10 11 9 12 11 11 12 12 11 9 11 13 12 8 6 5 3 4 4 4 3 2 0 -0 -1 -2 -2 -2 -2 -2 -2 -3 -3 -3 -4
7 9 8 9 9 9 9 10 9 10 10 9 11 11 14 14 12 11 10 7 8 6 6 6 4 3 3 3 2 2 2 -0 -1 -2 -3 -3 -3 -3 -3 -3 -3 -4 -4 -5
7 8 9 10 10 9 10 9 10 8 8 10 10 13 13 10 11 10 10 6 5 5 6 5 4 3 3 2 2 1 0 -1 -2 -2 -3 -4 -4 -4 -4 -4 -4 -5 -5 -5
7 8 9 9 7 11 13 12 13 12 13 11 10 12 13 7 9 8 5 7 7 6 4 3 2 3 4 3 2 1 0 -2 -3 -4 -4 -3 -4 -5 -5 -5 -5 -6 -6 -6
6 8 9 10 10 11 13 10 11 11 11 13 12 12 12 12 11 10 8 4 6 2 0 0 1 3 2 1 0 -1 -3 -4 -5 -5 -5 -5 -5 -5 -5 -5 -6 -6 -6 -6
5 7 9 9 10 9 14 13 13 14 11 14 14 14 13 10 10 9 3 0 0 -1 1 1 1 2 1 -1 -1 -3 -5 -5 -6 -6 -5 -5 -4 -5 -5 -5 -6 -6 -7 -7
7 7 9 10 10 8 12 11 12 10 13 15 15 13 10 10 8 5 -0 1 -0 -0 -0 0 1 -1 -1 -1 -2 -4 -5 -6 -5 -6 -6 -6 -6 -5 -5 -6 -6 -7 -7 -7
8 8 8 8 10 10 10 10 12 12 13 13 13 12 10 11 9 5 2 1 -1 -2 -1 -0 -1 -2 -2 -2 -3 -5 -6 -5 -6 -6 -6 -7 -5 -5 -5 -6 -7 -7 -7 -7
8 8 8 10 10 9 9 7 5 4 11 13 12 12 10 11 12 11 9 7 3 -0 -1 -1 -2 -3 -3 -3 -3 -5 -5 -6 -6 -7 -8 -7 -7 -7 -7 -6 -7 -8 -8 -8
6 5 7 8 10 9 7 5 4 4 6 8 10 11 11 12 11 11 9 7 4 2 -0 -1 -2 -4 -5 -4 -4 -4 -5 -6 -6 -8 -9 -8 -9 -9 -8 -8 -7 -8 -8 -8
7 7 6 7 9 11 9 8 10 9 8 8 5 4 9 10 9 9 7 5 4 2 0 -1 -2 -3 -4 -4 -4 -5 -5 -6 -8 -9 -10 -10 -9 -9 -9 -8 -8 -7 -7 -6
6 7 8 8 10 10 9 9 9 9 8 7 6 3 6 4 5 3 3 2 2 -0 -0 -2 -2 -2 -3 -4 -5 -5 -5 -6 -8 -10 -10 -10 -10 -10 -9 -9 -9 -8 -7 -8
Height
775 783 788 779 775 771 775 780 781 784 794 794 793 784 772 764 765 766 764 765 766 767 772 779 785 792 799 804 808 812 816 819 821 824 827 830 832 834 834 834 833 832 830 827
783 784 769 768 767 775 778 784 786 794 794 798 789 782 765 755 748 746 754 757 758 761 766 772 779 786 791 797 803 809 813 816 818 821 825 827 830 831 831 831 831 830 828 827
772 771 767 770 777 781 782 786 781 787 795 794 797 784 762 739 738 738 737 739 745 750 758 764 772 779 786 791 797 803 808 812 815 819 821 824 827 829 830 831 831 829 827 827
771 773 774 776 777 778 787 781 784 790 794 806 791 809 751 738 735 736 736 737 740 745 750 758 766 773 779 787 794 798 803 807 811 814 817 821 824 827 829 831 831 830 828 826
773 778 779 778 776 774 786 785 788 793 796 794 798 812 771 735 737 733 739 737 738 740 744 751 759 768 777 783 789 796 802 806 809 812 815 818 821 824 825 827 829 830 828 827
779 777 775 781 787 782 788 791 792 793 802 832 793 796 773 745 733 736 737 739 738 740 742 748 756 765 772 780 788 795 800 804 808 812 815 817 820 822 824 826 828 828 828 827
778 780 784 781 791 789 787 792 824 825 841 826 796 800 772 741 735 728 738 742 740 741 743 747 753 761 770 777 782 789 795 801 806 810 814 817 819 821 823 824 826 827 826 825
776 787 784 779 775 786 794 789 806 813 813 802 808 808 760 731 726 727 730 735 740 744 745 749 752 758 766 771 779 786 793 798 803 808 810 812 816 819 822 824 824 824 825 824
757 767 784 783 780 782 789 801 784 821 854 826 787 763 735 726 728 730 733 736 740 745 746 749 752 757 762 769 776 782 787 795 801 805 810 813 814 816 819 822 823 822 823 823
729 781 786 789 784 785 785 782 805 817 812 818 782 761 758 730 728 728 731 734 737 741 747 748 751 755 760 767 774 780 784 789 797 802 805 809 813 816 818 820 821 822 822 822
731 750 796 788 787 783 798 799 793 788 791 792 792 773 730 728 725 727 728 731 736 741 746 749 751 755 761 766 770 777 783 786 789 795 800 805 809 813 815 817 819 820 821 821
740 755 792 780 779 778 776 773 782 794 790 797 799 776 723 726 726 725 730 732 732 736 742 747 751 755 758 764 771 773 779 784 787 791 796 800 804 808 812 814 816 818 819 820
742 762 795 785 783 786 782 774 769 795 796 791 791 763 730 730 729 729 734 734 739 741 742 747 752 754 758 761 766 770 776 781 786 790 794 798 801 804 807 810 813 815 817 818
734 755 741 730 735 759 775 767 767 778 783 764 740 756 737 732 734 728 730 732 736 742 741 746 751 752 755 758 762 767 771 776 780 787 790 795 799 802 805 807 809 812 814 816
743 748 756 752 747 746 746 758 761 767 757 773 749 752 750 738 734 730 733 733 735 736 740 743 746 746 748 750 755 761 764 768 776 782 790 791 794 797 800 804 806 810 812 815
749 748 753 753 753 759 762 755 761 760 760 762 754 740 731 723 726 729 727 738 737 742 740 737 737 738 740 744 748 753 759 763 771 775 783 787 792 796 799 801 805 808 811 814
750 748 749 746 750 754 746 745 749 754 752 743 748 717 716 726 725 726 725 732 734 731 727 730 727 726 728 732 739 749 758 764 769 774 781 787 793 796 798 801 804 807 810 813
743 743 747 750 764 741 710 711 711 719 717 726 722 709 709 726 721 722 726 723 719 719 721 722 721 722 723 728 734 741 746 755 764 768 773 777 785 793 798 801 804 808 811 812
739 739 741 740 743 723 708 717 716 719 715 700 707 703 704 711 713 712 711 713 712 717 717 717 717 717 721 728 736 742 754 759 765 769 775 780 781 789 795 801 805 809 812 813
745 744 735 740 731 742 697 697 696 700 720 686 690 690 698 710 720 714 712 714 715 713 712 712 714 716 719 725 731 735 743 751 761 763 774 777 781 786 793 801 805 809 814 814
738 739 730 729 731 728 696 699 699 726 706 684 684 688 700 705 710 708 711 713 714 714 715 715 715 716 718 725 730 735 740 743 750 763 769 778 781 783 789 798 804 809 813 814
719 729 733 732 727 720 695 704 704 696 686 687 686 688 694 696 697 705 707 710 710 712 714 713 714 719 721 722 727 732 738 742 751 758 767 773 779 785 788 794 799 807 810 813
711 705 712 707 698 692 690 695 697 699 692 689 691 692 693 696 697 697 699 703 709 711 711 713 718 723 728 727 730 731 733 739 747 751 763 771 778 782 788 793 796 805 809 812
708 706 707 705 691 691 696 696 698 700 699 697 694 693 693 694 696 697 701 705 709 708 711 712 717 722 727 727 729 733 734 740 744 749 759 765 771 781 786 791 794 802 804 809
694 696 702 701 690 687 691 691 688 690 693 696 696 694 692 693 699 699 700 703 705 706 708 710 715 720 724 726 726 731 735 739 744 748 756 762 769 776 784 789 792 798 802 805
690 689 690 693 684 686 690 691 691 691 691 693 696 698 696 698 699 701 705 704 705 706 707 709 709 716 719 722 723 726 734 737 739 748 757 760 768 774 781 787 794 800 804 806
Wind_Speed
5 4 8 10 10 6 3 4 5 4 3 2 8 15 16 12 11 13 13 11 10 12 14 27 28 28 28 29 28 26 24 21 19 16 12 8 6 6 4 7 9 12 15 17
3 8 9 4 6 4 2 4 5 3 4 3 6 15 19 17 14 14 12 13 11 8 11 18 28 30 33 32 30 28 25 23 20 15 12 8 10 7 9 4 7 11 14 15
6 2 6 4 4 4 4 5 4 2 4 4 6 8 5 8 8 12 11 9 15 12 14 16 23 28 31 32 31 30 28 25 22 18 17 14 10 7 3 3 4 9 12 13
6 4 5 4 4 6 5 4 3 2 2 4 1 6 5 8 7 5 7 7 8 10 11 15 20 26 30 31 31 30 28 26 23 22 18 14 9 7 7 4 4 6 10 12
4 6 6 4 2 7 2 3 4 1 1 3 2 1 7 4 4 1 3 2 7 9 9 15 19 28 28 32 32 30 27 25 25 22 17 16 12 9 6 2 1 5 7 10
4 3 2 3 4 3 9 4 3 2 1 1 6 6 4 4 3 4 3 1 2 7 8 10 22 27 28 31 29 29 28 26 24 21 17 15 13 10 8 4 2 2 4 7
3 4 2 4 7 2 3 4 3 3 2 6 4 1 8 10 8 4 9 7 5 6 7 9 11 19 24 30 31 31 29 27 25 22 19 16 14 11 10 6 3 1 2 5
8 4 9 6 2 7 7 6 5 7 4 3 3 6 6 8 1 5 6 7 8 8 6 8 8 18 23 30 32 30 28 27 26 23 20 19 16 13 10 7 4 1 2 4
7 4 3 6 4 2 5 3 1 5 1 3 5 7 9 5 7 7 8 8 8 8 8 8 8 20 25 28 31 33 31 28 28 25 22 19 17 14 11 7 4 3 2 4
4 5 2 2 1 2 1 2 4 2 2 5 4 2 6 2 4 5 5 7 7 7 8 8 8 17 24 27 31 30 31 30 30 26 24 21 18 15 12 9 6 3 3 4
3 5 1 4 8 9 2 2 1 2 3 5 1 5 7 8 5 6 5 7 8 9 8 7 7 16 20 25 29 30 30 30 32 30 27 23 20 16 13 10 7 4 3 4
2 5 5 5 3 3 1 6 7 5 5 3 3 6 2 6 5 3 6 4 4 7 8 7 8 15 20 22 26 30 31 31 33 32 29 26 23 19 16 12 9 6 4 4
8 3 3 3 1 2 5 6 4 4 2 7 5 5 1 4 1 4 4 1 3 3 8 7 7 9 16 22 25 29 31 30 32 32 31 27 25 22 18 15 11 8 6 5
5 2 4 7 5 6 6 8 10 6 4 5 12 5 10 8 7 7 1 4 8 8 7 6 7 8 19 23 26 28 29 31 34 33 32 30 27 24 20 17 13 10 8 6
3 5 2 2 6 5 4 7 14 15 18 6 2 8 9 12 12 10 6 5 6 6 7 8 9 9 20 26 30 31 33 34 35 34 32 31 29 26 23 19 16 12 10 8
1 2 2 2 5 5 4 9 10 14 12 12 20 27 17 17 8 9 14 7 9 5 9 11 10 9 17 23 28 33 34 36 36 36 36 34 30 27 24 21 17 14 12 10
5 5 3 3 2 4 10 13 14 8 9 14 15 23 13 8 13 14 15 5 8 12 12 10 11 12 20 25 29 29 31 35 36 36 35 34 30 29 26 22 19 16 14 11
7 5 2 2 2 6 4 2 13 21 17 18 16 20 15 6 7 9 6 10 12 9 7 7 7 14 19 26 32 36 40 40 37 35 37 37 35 31 27 23 20 18 15 12
3 4 3 4 5 7 5 6 8 9 12 21 20 24 20 4 2 8 8 7 9 4 3 3 5 4 14 24 27 28 27 28 30 33 36 36 36 33 29 26 22 19 16 13
4 2 4 4 4 7 3 2 6 6 5 7 18 21 11 8 3 5 2 2 1 0 2 5 6 11 18 23 29 31 29 29 26 33 37 38 37 34 31 27 23 19 16 14
5 3 10 6 4 7 5 4 3 6 5 2 4 8 7 6 5 3 2 1 1 2 5 9 11 16 21 25 29 27 28 29 31 31 35 35 35 34 31 28 24 21 17 14
9 8 5 4 5 11 6 4 8 5 1 2 2 3 8 5 6 4 6 4 6 6 8 10 14 16 20 25 28 23 23 27 28 31 34 37 36 33 32 30 27 22 19 16
5 7 7 11 7 1 7 5 3 3 2 2 3 2 5 5 3 1 2 4 5 6 10 12 13 13 16 21 23 21 24 28 30 32 33 36 34 33 32 31 29 25 21 19
2 3 2 4 6 6 3 3 1 3 3 1 3 4 1 1 3 3 3 3 4 7 9 14 15 14 14 19 19 18 24 28 32 33 34 35 34 31 31 30 30 27 25 21
4 8 5 5 5 2 2 5 4 3 4 4 2 2 2 2 3 4 2 4 4 8 12 17 16 15 15 19 19 19 23 28 29 30 31 32 31 33 30 28 29 27 24 22
4 6 5 3 2 3 2 2 2 4 5 7 4 1 3 3 1 3 2 3 4 8 12 15 16 15 16 19 22 24 25 30 32 26 26 29 29 30 28 27 21 17 18 15
Wind_Direction
200 190 205 197 208 262 349 339 334 95 30 250 238 259 268 262 219 222 217 221 230 207 181 191 192 188 189 189 190 191 191 192 193 190 185 202 220 196 248 292 332 340 352 357
130 236 218 88 182 186 218 275 270 73 131 180 286 283 267 259 250 232 210 218 216 203 172 176 181 187 188 187 190 192 194 193 195 190 187 190 180 204 221 282 340 333 351 359
175 127 111 147 137 152 218 217 244 229 208 214 296 282 251 256 233 236 232 205 206 194 179 178 179 183 185 189 191 193 194 194 196 185 193 197 193 203 210 165 294 332 352 0
238 136 151 159 191 175 222 338 95 89 36 267 241 285 263 258 264 218 231 225 199 189 180 178 178 184 183 191 194 194 193 193 193 192 195 186 178 183 178 225 300 343 352 360
195 153 159 163 169 175 159 113 107 105 238 335 212 338 265 160 258 54 67 231 227 193 180 179 180 184 186 189 194 195 193 192 192 197 189 187 187 188 186 190 351 351 356 358
78 325 18 73 61 30 146 104 87 92 45 359 210 166 270 217 190 124 129 54 322 165 175 158 171 176 183 188 192 191 191 190 194 198 188 184 184 180 171 175 158 357 2 3
128 161 98 164 93 33 223 135 355 343 15 223 51 8 252 287 296 176 181 168 169 169 163 153 154 166 175 180 188 189 190 184 191 194 191 183 185 182 183 178 181 120 14 4
159 247 164 184 213 175 197 169 169 210 202 242 69 228 248 219 80 81 112 134 160 167 169 175 162 167 175 180 186 182 186 181 189 191 189 185 184 178 180 179 167 143 48 11
171 174 17 37 5 46 176 189 136 95 65 59 223 265 299 295 207 187 195 174 180 182 174 175 170 171 177 179 180 183 184 183 190 191 190 185 179 180 177 172 165 130 58 32
160 109 339 101 289 60 153 201 86 348 212 256 270 252 238 197 180 194 215 209 169 157 164 172 173 174 180 182 182 184 186 183 190 191 191 184 181 181 175 171 164 145 90 56
224 111 141 142 204 175 163 199 247 149 178 197 245 249 224 203 185 180 119 166 165 165 173 179 170 180 181 183 180 184 183 181 186 189 188 183 180 179 174 172 165 150 115 78
141 105 151 193 82 45 273 199 167 146 231 232 138 266 37 111 112 81 92 124 123 158 171 169 165 169 174 177 180 183 183 186 187 187 186 183 179 177 175 171 167 158 140 103
183 202 101 19 5 13 217 193 188 112 94 201 160 247 49 67 331 256 238 354 131 192 145 155 162 170 176 182 184 183 184 184 184 186 186 184 180 177 177 172 168 162 148 134
104 149 213 198 143 132 186 198 190 159 190 215 226 284 301 299 266 268 205 187 176 198 172 168 184 184 183 188 188 185 183 185 183 187 187 185 182 181 178 174 168 161 154 141
131 194 130 129 113 120 166 184 193 206 222 214 162 234 227 246 263 285 235 212 194 202 187 205 206 192 189 186 190 188 184 181 185 186 187 186 185 183 179 174 167 163 153 146
270 160 83 356 150 151 211 214 190 210 227 247 258 263 252 249 254 268 274 158 212 229 227 229 218 196 192 186 186 184 182 180 184 185 189 187 186 181 177 172 167 163 153 142
166 140 106 224 87 73 275 191 195 194 198 209 231 248 248 252 240 250 262 223 215 222 228 232 223 209 199 189 181 177 177 179 183 187 189 188 185 183 179 173 167 163 153 142
150 121 123 136 90 226 253 251 198 209 227 217 252 260 254 220 239 242 213 241 260 251 248 236 231 223 209 193 184 183 184 183 182 182 187 189 186 184 178 173 169 162 154 142
93 125 162 183 204 302 285 198 169 167 243 226 229 248 254 211 251 281 243 225 245 216 243 272 295 243 188 181 177 170 168 170 176 184 189 190 186 183 178 175 170 162 158 144
104 211 184 160 218 215 263 12 106 104 288 225 206 238 239 138 198 247 186 183 185 147 132 102 121 143 156 167 174 166 166 173 178 187 194 192 188 185 179 177 170 165 163 145
167 179 200 186 227 282 242 140 125 115 238 358 223 215 145 168 194 207 160 184 130 89 101 121 133 147 158 168 173 164 171 182 188 191 194 192 188 184 181 176 171 167 163 151
170 163 181 197 211 256 163 50 171 212 336 28 47 126 165 145 146 207 193 187 172 166 137 135 139 152 164 172 175 166 175 186 187 189 191 189 188 186 181 177 169 170 164 155
190 183 177 191 206 264 195 165 215 140 137 39 72 89 127 157 215 219 216 189 186 187 155 152 149 153 174 180 186 169 179 179 182 181 184 186 184 185 183 178 170 171 169 163
269 181 204 97 247 234 274 300 202 149 166 283 107 87 105 154 259 219 172 189 191 179 177 170 161 163 177 188 188 194 180 184 182 175 179 180 176 178 179 179 177 176 172 170
178 148 170 259 310 53 256 248 244 210 224 253 277 178 239 176 238 207 247 270 234 200 178 179 182 187 192 192 186 190 187 185 174 173 171 170 172 173 171 177 178 182 182 182
184 182 177 212 136 144 87 159 332 255 226 219 176 98 127 151 30 60 245 239 231 185 179 187 190 194 194 192 188 188 193 189 176 165 170 169 168 168 166 165 161 182 178 170